Skip Page Navigation
NASA JPL Caltech
NASA Logo - Jet Propulsion Laboratory + View the NASA Portal
+ Center for Near-Earth Object Studies
JPL Home Earth Solar System Stars & Galaxies Technology
JPL Solar System Dynamics
BODIES ORBITS EPHEMERIDES TOOLS PHYSICAL DATA DISCOVERY FAQ SITE MAP
JPL Small-Body Database Browser
Search: [ help ]  
452684 (2005 XK59)
Classification: Main-belt Asteroid          SPK-ID: 2452684
Ephemeris | Orbit Diagram | Orbital Elements | Mission Design | Physical Parameters | Discovery Circumstances | Close-Approach Data ]

[ show orbit diagram ]
Orbital Elements at Epoch 2459000.5 (2020-May-31.0) TDB
Reference: JPL 10 (heliocentric ecliptic J2000)
 Element Value Uncertainty (1-sigma)   Units 
e .161599756627881 8.7834e-08  
a 3.064154077646649 5.3993e-08 au
q 2.568987524428622 2.8495e-07 au
i 3.474329308124501 8.5749e-06 deg
node 295.1852884650092 0.0001306 deg
peri 353.2008100441162 0.00013421 deg
M 37.23039193022719 2.7809e-05 deg
tp 2458797.890673205248
(2019-Nov-10.39067321)
0.00014999 TDB
period 1959.134832177035
5.36
5.1783e-05
1.418e-07
d
yr
n .18375458089322 4.8569e-09 deg/d
Q 3.559320630864677 6.2719e-08 au
  Orbit Determination Parameters
   # obs. used (total)      98  
   data-arc span      6323 days (17.31 yr)  
   first obs. used      2002-03-13  
   last obs. used      2019-07-05  
   planetary ephem.      DE431  
   SB-pert. ephem.      SB431-N16  
   condition code      0  
   norm. resid. RMS      .5842  
   source      ORB  
   producer      Otto Matic  
   solution date      2019-Sep-24 07:57:14  

Additional Information
 Earth MOID = 1.55268 au 
 Jupiter MOID = 1.619 au 
 T_jup = 3.210 
[ show covariance matrix ]

Ephemeris | Orbit Diagram | Orbital Elements | Mission Design | Physical Parameters | Discovery Circumstances | Close-Approach Data ]

Physical Parameter Table
Parameter Symbol Value Units Sigma Reference Notes
absolute magnitude H 16.2   n/a MPO357392  

452684 (2005 XK59)          Discovered 2005-Dec-03 by Spacewatch at Kitt Peak
Reference: Last Updated: 2016-01-04

[ show close-approach data ]
Alternate Designations
 2005 XK59 = 2015 VX26 
Ephemeris | Orbit Diagram | Orbital Elements | Mission Design | Physical Parameters | Discovery Circumstances | Close-Approach Data ]
ABOUT SSD CREDITS/AWARDS PRIVACY/COPYRIGHT GLOSSARY LINKS
FirstGov 2020-Aug-08 12:33 UT
(server date/time)  
NASA Home Page
Site Manager:   Ryan S. Park
Webmaster  Alan B. Chamberlin